KellyUSA Airport, TX

2:42 PM CDT on July 25, 2017 (GMT -0500)
Kelly Air Force Base

Weather History for KSKF - March, 2014

Change the Weather History Date:

Friday, March 7, 2014

  Actual Average Record
Temperature  
Mean Temperature 54 °F -  
Max Temperature 69 °F 69 °F 89 °F (2004)
Min Temperature 39 °F 49 °F 34 °F (2008)
Degree Days  
Heating Degree Days 11    
Growing Degree Days 4 (Base 50)    
Moisture  
Dew Point 44 °F    
Average Humidity 65    
Maximum Humidity 86    
Minimum Humidity 38    
Precipitation  
Precipitation 0.00 in - - ()
Sea Level Pressure  
Sea Level Pressure 29.95 in    
Wind  
Wind Speed 5 mph (SSE)    
Max Wind Speed 16 mph    
Max Gust Speed 22 mph    
Visibility 10 miles    
Events      
Averages and records for this station are not official NWS values.
T = Trace of Precipitation, MM = Missing Value Source: NWS Daily Summary

Daily Weather History Graph

Daily Weather History Graph

Search for Another Location

Airport or City:

Trip Planner

Search our weather history database for the weather conditions in past years. The results will help you decide how hot, cold, wet, or windy it might be!

Date:

Astronomy

Mar. 07, 2014 Rise Set
Actual Time 6:53 AM CST 6:37 PM CST
Civil Twilight 6:29 AM CST 7:01 PM CST
Nautical Twilight 6:01 AM CST 7:29 PM CST
Astronomical Twilight 5:34 AM CST 7:56 PM CST
Moon 11:15 AM CST (3/7) 12:17 AM CST (3/7)
Length of Visible Light 12h 32m
Length of Day
11h 44m
Waxing Crescent, 42% of the Moon is Illuminated
Mar 7
Waxing Crescent
Mar 8
First Quarter
Mar 16
Full
Mar 23
Last Quarter
Mar 30
New

Hourly Weather History & Observations

Time (CST) Temp. Windchill Dew Point Humidity Pressure Visibility Wind Dir Wind Speed Gust Speed Precip Events Conditions
12:58 AM 42.4 °F - 36.0 °F 78% 30.05 in 10.0 mi Calm Calm - N/A   Clear
1:58 AM 39.7 °F - 34.3 °F 81% 30.03 in 10.0 mi Calm Calm - N/A   Clear
2:58 AM 42.8 °F 41.1 °F 36.7 °F 79% 30.01 in 10.0 mi ENE 3.5 mph - N/A   Clear
3:58 AM 41.4 °F - 36.3 °F 82% 30.00 in 10.0 mi Calm Calm - N/A   Clear
4:58 AM 42.4 °F - 37.6 °F 83% 30.01 in 10.0 mi SSE 2.3 mph - N/A   Clear
5:58 AM 41.4 °F - 37.2 °F 85% 30.02 in 10.0 mi Calm Calm - N/A   Clear
6:58 AM 42.1 °F - 38.1 °F 86% 30.03 in 10.0 mi Calm Calm - N/A   Clear
7:58 AM 46.4 °F - 42.4 °F 86% 30.04 in 10.0 mi Calm Calm - N/A   Clear
8:58 AM 51.6 °F - 43.2 °F 73% 30.06 in 10.0 mi Variable 5.8 mph - N/A   Clear
9:58 AM 56.8 °F - 44.2 °F 63% 30.04 in 10.0 mi South 11.5 mph - N/A   Clear
10:58 AM 62.4 °F - 45.1 °F 53% 30.00 in 10.0 mi South 9.2 mph - N/A   Clear
11:58 AM 63.1 °F - 45.7 °F 53% 29.99 in 10.0 mi SSE 10.4 mph - N/A   Mostly Cloudy
12:58 PM 65.8 °F - 46.0 °F 49% 29.95 in 10.0 mi South 11.5 mph - N/A   Mostly Cloudy
1:58 PM 69.1 °F - 42.4 °F 38% 29.92 in 10.0 mi SSE 15.0 mph - N/A   Scattered Clouds
2:02 PM 68.0 °F - 42.8 °F 40% 29.91 in 10.0 mi SSE 13.8 mph - N/A   Scattered Clouds
2:58 PM 68.2 °F - 44.6 °F 43% 29.88 in 10.0 mi SE 11.5 mph - N/A   Partly Cloudy
3:58 PM 68.7 °F - 44.8 °F 42% 29.87 in 10.0 mi SSE 12.7 mph - N/A   Partly Cloudy
4:58 PM 69.4 °F - 45.9 °F 43% 29.85 in 10.0 mi South 12.7 mph - N/A   Clear
5:58 PM 68.7 °F - 47.1 °F 46% 29.84 in 10.0 mi SSE 16.1 mph 21.9 mph N/A   Clear
6:58 PM 66.2 °F - 48.4 °F 53% 29.86 in 10.0 mi SSE 10.4 mph - N/A   Partly Cloudy
7:58 PM 64.4 °F - 50.0 °F 59% 29.87 in 10.0 mi SE 12.7 mph - N/A   Scattered Clouds
8:58 PM 62.2 °F - 49.8 °F 64% 29.90 in 10.0 mi SE 16.1 mph - N/A   Clear
9:58 PM 59.9 °F - 50.0 °F 70% 29.92 in 10.0 mi SE 9.2 mph - N/A   Clear
10:58 PM 58.3 °F - 50.5 °F 75% 29.91 in 10.0 mi ESE 6.9 mph - N/A   Clear
11:43 PM 57.2 °F - 51.8 °F 82% 29.91 in 10.0 mi SE 8.1 mph - N/A   Mostly Cloudy
11:58 PM 58.1 °F - 51.4 °F 78% 29.90 in 10.0 mi SE 9.2 mph - N/A   Overcast